Overview Statistics Trail Chart Weather Telemetry Raw packets
 

This is the latest recevied weather packets stored in our database for station/object K9MWD. If no packets are shown the sender has not sent any weather packets the latest 10 day(s).

<< 39 40 41 42 43 44 45 >>
Time Temp. Humidity Pressure Rain* Wind** Luminosity Snow
1788366929 32.78° C 57% 1016.1 hPa 0 mm - 766 W/m² -
1788366627 32.22° C 58% 1016.2 hPa 0 mm - 759 W/m² -
1788366327 31.11° C 60% 1016.1 hPa 0 mm - 741 W/m² -
1788366022 32.22° C 59% 1016.3 hPa 0 mm - 733 W/m² -
1788365717 32.78° C 57% 1016.4 hPa 0 mm - 723 W/m² -
1788365413 31.67° C 58% 1016.3 hPa 0 mm - 711 W/m² -
1788365109 31.67° C 60% 1016.4 hPa 0 mm - 697 W/m² -
1788364809 31.67° C 61% 1016.4 hPa 0 mm - 683 W/m² -
1788364502 31.67° C 60% 1016.2 hPa 0 mm - 670 W/m² -
1788364200 31.67° C 60% 1016.4 hPa 0 mm - 657 W/m² -
1788363896 31.67° C 60% 1016.4 hPa 0 mm - 646 W/m² -
1788363591 31.67° C 61% 1016.4 hPa 0 mm - 631 W/m² -
1788363289 30.56° C 63% 1016.3 hPa 0 mm - 613 W/m² -
1788362985 30.56° C 65% 1016 hPa 0 mm - 600 W/m² -
1788362681 31.67° C 62% 1016.2 hPa 0 mm - 588 W/m² -
1788362376 31.11° C 64% 1016.3 hPa 0 mm - 571 W/m² -
1788362073 30.56° C 63% 1016.2 hPa 0 mm - 553 W/m² -
1788361772 30° C 66% 1016.1 hPa 0 mm - 534 W/m² -
1788361469 30° C 67% 1016.2 hPa 0 mm - 517 W/m² -
1788361168 30.56° C 67% 1016.4 hPa 0 mm - 504 W/m² -
1788360864 31.11° C 65% 1016.3 hPa 0 mm - 483 W/m² -
1788360564 30.56° C 65% 1016.4 hPa 0 mm - 466 W/m² -
1788360260 30.56° C 65% 1016.3 hPa 0 mm - 448 W/m² -
1788359960 30° C 67% 1016.4 hPa 0 mm - 428 W/m² -
1788359655 30° C 67% 1016.2 hPa 0 mm - 408 W/m² -

* Rain latest hour (hover to see other rain measurements)
** Current wind speed in m/s (hover to see current wind gust speed)